| time (UTC) | temp F | wind direction | speed MPH | gust MPH | rain 1hr in | rain 24hr in | rain mn in | humidity % | barometer mb |
| 20260506181555 | 86 | 147 | 0.0 | 1.0 | 0.00 | 0.00 | 0.00 | 76 | 1008.1 |
| 20260506181047 | 86 | 146 | 0.0 | 4.0 | 0.00 | 0.00 | 0.00 | 76 | 1008.5 |
| 20260506180756 | 85 | 170 | 0.0 | 4.0 | 0.00 | 0.00 | 0.00 | 78 | 1008.5 |
| 20260506180039 | 85 | 110 | 0.0 | 1.0 | 0.00 | 0.00 | 0.00 | 77 | 1008.5 |
| 20260506175529 | 86 | 171 | 0.0 | 2.0 | 0.00 | 0.00 | 0.00 | 77 | 1008.5 |
| 20260506175022 | 85 | 164 | 0.0 | 4.0 | 0.00 | 0.00 | 0.00 | 79 | 1008.8 |
| 20260506174515 | 85 | 157 | 0.0 | 4.0 | 0.00 | 0.00 | 0.00 | 79 | 1008.8 |
| 20260506174013 | 85 | 169 | 0.0 | 1.0 | 0.00 | 0.00 | 0.00 | 78 | 1008.8 |
| 20260506173508 | 85 | 146 | 0.0 | 2.0 | 0.00 | 0.00 | 0.00 | 78 | 1008.8 |
| 20260506173224 | 85 | 223 | 2.0 | 2.0 | 0.00 | 0.00 | 0.00 | 78 | 1009.1 |
| 20260506172452 | 86 | 146 | 0.0 | 1.0 | 0.00 | 0.00 | 0.00 | 77 | 1008.8 |
| 20260506171951 | 84 | 127 | 0.0 | 2.0 | 0.00 | 0.00 | 0.00 | 79 | 1009.1 |
| 20260506171444 | 83 | 95 | 0.0 | 6.0 | 0.00 | 0.00 | 0.00 | 81 | 1009.1 |
| 20260506170936 | 83 | 153 | 0.0 | 6.0 | 0.00 | 0.00 | 0.00 | 81 | 1009.1 |
| 20260506170430 | 84 | 207 | 0.0 | 1.0 | 0.00 | 0.00 | 0.00 | 80 | 1009.1 |
| 20260506170148 | 83 | 134 | 0.0 | 1.0 | 0.00 | 0.00 | 0.00 | 82 | 1009.1 |
| 20260506165641 | 82 | 151 | 0.0 | 1.0 | 0.00 | 0.00 | 0.00 | 82 | 1009.1 |
| 20260506164912 | 82 | 165 | 1.0 | 1.0 | 0.00 | 0.00 | 0.00 | 83 | 1009.1 |
| 20260506164405 | 82 | 141 | 0.0 | 1.0 | 0.00 | 0.00 | 0.00 | 84 | 1009.1 |
| 20260506164125 | 81 | 129 | 0.0 | 3.0 | 0.00 | 0.00 | 0.00 | 85 | 1009.1 |
| 20260506163358 | 82 | 167 | 2.0 | 3.0 | 0.00 | 0.00 | 0.00 | 85 | 1009.1 |
| 20260506163113 | 81 | 116 | 0.0 | 2.0 | 0.00 | 0.00 | 0.00 | 86 | 1009.1 |
| 20260506162344 | 82 | 147 | 0.0 | 1.0 | 0.00 | 0.00 | 0.00 | 86 | 1009.1 |
| 20260506161839 | 81 | 149 | 0.0 | 1.0 | 0.00 | 0.00 | 0.00 | 86 | 1009.1 |
| 20260506160829 | 81 | 102 | 0.0 | 1.0 | 0.00 | 0.00 | 0.00 | 84 | 1008.8 |
| 20260506160322 | 81 | 127 | 0.0 | 1.0 | 0.00 | 0.00 | 0.00 | 83 | 1008.8 |
| 20260506155813 | 82 | 146 | 0.0 | 0.0 | 0.00 | 0.00 | 0.00 | 83 | 1008.8 |
| 20260506155307 | 82 | 154 | 0.0 | 1.0 | 0.00 | 0.00 | 0.00 | 82 | 1008.8 |
| 20260506154758 | 82 | 118 | 0.0 | 1.0 | 0.00 | 0.00 | 0.00 | 83 | 1008.5 |
| 20260506154251 | 81 | 147 | 0.0 | 2.0 | 0.00 | 0.00 | 0.00 | 82 | 1008.8 |
| 20260506153749 | 81 | 155 | 0.0 | 2.0 | 0.00 | 0.00 | 0.00 | 83 | 1008.8 |
| 20260506153243 | 82 | 132 | 0.0 | 1.0 | 0.00 | 0.00 | 0.00 | 83 | 1008.5 |
| 20260506152737 | 82 | 127 | 1.0 | 1.0 | 0.00 | 0.00 | 0.00 | 83 | 1008.5 |
| 20260506152232 | 82 | 136 | 0.0 | 2.0 | 0.00 | 0.00 | 0.00 | 82 | 1008.5 |
| 20260506151215 | 82 | 102 | 0.0 | 1.0 | 0.00 | 0.00 | 0.00 | 82 | 1008.1 |
| 20260506150707 | 82 | 209 | 0.0 | 1.0 | 0.00 | 0.00 | 0.00 | 82 | 1008.1 |
| 20260506150423 | 82 | 133 | 0.0 | 0.0 | 0.00 | 0.00 | 0.00 | 82 | 1008.1 |
| 20260506145703 | 82 | 130 | 0.0 | 1.0 | 0.00 | 0.00 | 0.00 | 82 | 1008.1 |
| 20260506145154 | 82 | 98 | 0.0 | 1.0 | 0.00 | 0.00 | 0.00 | 83 | 1008.1 |
| 20260506144646 | 82 | 135 | 0.0 | 2.0 | 0.00 | 0.00 | 0.00 | 82 | 1008.1 |
| 20260506144141 | 82 | 137 | 0.0 | 2.0 | 0.00 | 0.00 | 0.00 | 83 | 1007.8 |
| 20260506143636 | 82 | 134 | 0.0 | 1.0 | 0.00 | 0.00 | 0.00 | 83 | 1007.8 |
| 20260506143356 | 81 | 159 | 0.0 | 1.0 | 0.00 | 0.00 | 0.00 | 83 | 1007.8 |
| 20260506142623 | 81 | 117 | 0.0 | 2.0 | 0.00 | 0.00 | 0.00 | 84 | 1007.8 |
| 20260506142114 | 81 | 105 | 0.0 | 3.0 | 0.00 | 0.00 | 0.00 | 84 | 1007.5 |
| 20260506141612 | 81 | 151 | 1.0 | 3.0 | 0.00 | 0.00 | 0.00 | 85 | 1007.8 |
| 20260506141331 | 80 | 218 | 2.0 | 3.0 | 0.00 | 0.00 | 0.00 | 85 | 1007.8 |
| 20260506140600 | 80 | 94 | 0.0 | 3.0 | 0.00 | 0.00 | 0.00 | 86 | 1007.8 |
| 20260506140054 | 80 | 118 | 1.0 | 3.0 | 0.00 | 0.00 | 0.00 | 86 | 1007.8 |
| 20260506135550 | 80 | 117 | 0.0 | 0.0 | 0.00 | 0.00 | 0.00 | 87 | 1007.8 |
| 20260506134750 | 79 | 132 | 0.0 | 0.0 | 0.00 | 0.00 | 0.00 | 89 | 1007.8 |
| 20260506134242 | 79 | 137 | 0.0 | 2.0 | 0.00 | 0.00 | 0.00 | 90 | 1007.8 |
| 20260506133733 | 78 | 141 | 0.0 | 2.0 | 0.00 | 0.00 | 0.00 | 90 | 1007.8 |
| 20260506133002 | 78 | 132 | 0.0 | 0.0 | 0.00 | 0.00 | 0.00 | 90 | 1008.1 |
| 20260506132717 | 78 | 124 | 0.0 | 0.0 | 0.00 | 0.00 | 0.00 | 91 | 1008.1 |
| 20260506131948 | 78 | 121 | 0.0 | 0.0 | 0.00 | 0.00 | 0.00 | 91 | 1008.1 |
| 20260506131441 | 78 | 128 | 0.0 | 0.0 | 0.00 | 0.00 | 0.00 | 91 | 1008.1 |
| 20260506130939 | 77 | 121 | 0.0 | 0.0 | 0.00 | 0.00 | 0.00 | 91 | 1008.1 |
| 20260506130430 | 77 | 123 | 0.0 | 0.0 | 0.00 | 0.00 | 0.00 | 91 | 1008.1 |
| 20260506125922 | 77 | 125 | 0.0 | 0.0 | 0.00 | 0.00 | 0.00 | 92 | 1008.1 |
| 20260506125417 | 77 | 146 | 0.0 | 0.0 | 0.00 | 0.00 | 0.00 | 92 | 1008.1 |
| 20260506124904 | 77 | 137 | 0.0 | 0.0 | 0.00 | 0.00 | 0.00 | 92 | 1008.1 |
| 20260506124618 | 77 | 130 | 0.0 | 4.0 | 0.00 | 0.00 | 0.00 | 92 | 1008.1 |
| 20260506123851 | 77 | 130 | 0.0 | 4.0 | 0.00 | 0.00 | 0.00 | 92 | 1008.1 |
| 20260506123343 | 77 | 134 | 0.0 | 0.0 | 0.00 | 0.00 | 0.00 | 92 | 1008.1 |
| 20260506123048 | 77 | 128 | 0.0 | 0.0 | 0.00 | 0.00 | 0.00 | 92 | 1008.1 |
| 20260506122325 | 77 | 133 | 0.0 | 1.0 | 0.00 | 0.00 | 0.00 | 92 | 1007.8 |
| 20260506121817 | 76 | 123 | 0.0 | 2.0 | 0.00 | 0.00 | 0.00 | 92 | 1007.8 |
| 20260506121310 | 76 | 167 | 0.0 | 2.0 | 0.00 | 0.00 | 0.00 | 92 | 1007.8 |
| 20260506120810 | 76 | 148 | 0.0 | 1.0 | 0.00 | 0.00 | 0.00 | 92 | 1007.8 |
| 20260506120303 | 76 | 136 | 0.0 | 1.0 | 0.00 | 0.00 | 0.00 | 93 | 1007.5 |
| 20260506115757 | 76 | 132 | 0.0 | 1.0 | 0.00 | 0.00 | 0.00 | 93 | 1007.5 |
| 20260506115250 | 76 | 129 | 0.0 | 2.0 | 0.00 | 0.00 | 0.00 | 93 | 1007.5 |
| 20260506114751 | 76 | 129 | 2.0 | 2.0 | 0.00 | 0.00 | 0.00 | 93 | 1007.5 |
| 20260506114508 | 76 | 122 | 0.0 | 2.0 | 0.00 | 0.00 | 0.00 | 93 | 1007.5 |
| 20260506113954 | 76 | 124 | 0.0 | 2.0 | 0.00 | 0.00 | 0.00 | 93 | 1007.5 |
| 20260506113231 | 76 | 123 | 0.0 | 1.0 | 0.00 | 0.00 | 0.00 | 93 | 1007.5 |
| 20260506112731 | 76 | 134 | 0.0 | 2.0 | 0.00 | 0.00 | 0.00 | 93 | 1007.1 |
| 20260506111717 | 76 | 142 | 0.0 | 3.0 | 0.00 | 0.00 | 0.00 | 93 | 1007.1 |
| 20260506111212 | 76 | 130 | 0.0 | 0.0 | 0.00 | 0.00 | 0.00 | 93 | 1007.1 |
| 20260506110707 | 76 | 140 | 0.0 | 0.0 | 0.00 | 0.00 | 0.00 | 93 | 1006.8 |
| 20260506110159 | 76 | 120 | 0.0 | 0.0 | 0.00 | 0.00 | 0.00 | 93 | 1007.1 |
| 20260506105653 | 76 | 114 | 0.0 | 0.0 | 0.00 | 0.00 | 0.00 | 93 | 1006.8 |
| 20260506105144 | 76 | 120 | 0.0 | 1.0 | 0.00 | 0.00 | 0.00 | 93 | 1006.8 |
| 20260506104643 | 76 | 126 | 0.0 | 1.0 | 0.00 | 0.00 | 0.00 | 93 | 1006.8 |
| 20260506104137 | 76 | 145 | 0.0 | 1.0 | 0.00 | 0.00 | 0.00 | 93 | 1006.8 |
| 20260506103630 | 76 | 129 | 0.0 | 1.0 | 0.00 | 0.00 | 0.00 | 93 | 1006.8 |
| 20260506103123 | 76 | 141 | 0.0 | 1.0 | 0.00 | 0.00 | 0.00 | 93 | 1006.8 |
| 20260506102621 | 76 | 127 | 0.0 | 1.0 | 0.00 | 0.00 | 0.00 | 92 | 1006.8 |
| 20260506102115 | 76 | 154 | 0.0 | 2.0 | 0.00 | 0.00 | 0.00 | 92 | 1006.4 |
| 20260506101609 | 76 | 126 | 0.0 | 2.0 | 0.00 | 0.00 | 0.00 | 92 | 1006.8 |
| 20260506101103 | 76 | 184 | 0.0 | 1.0 | 0.00 | 0.00 | 0.00 | 92 | 1006.4 |
| 20260506100600 | 76 | 103 | 0.0 | 1.0 | 0.00 | 0.00 | 0.00 | 92 | 1006.8 |
| 20260506100053 | 76 | 135 | 0.0 | 1.0 | 0.00 | 0.00 | 0.00 | 92 | 1006.4 |
| 20260506095041 | 76 | 141 | 0.0 | 1.0 | 0.00 | 0.00 | 0.00 | 92 | 1006.8 |
| 20260506094539 | 76 | 140 | 0.0 | 0.0 | 0.00 | 0.00 | 0.00 | 92 | 1006.4 |
| 20260506094031 | 76 | 140 | 0.0 | 1.0 | 0.00 | 0.00 | 0.00 | 92 | 1006.4 |
| 20260506093525 | 76 | 139 | 0.0 | 1.0 | 0.00 | 0.00 | 0.00 | 92 | 1006.4 |
| 20260506093245 | 76 | 130 | 0.0 | 2.0 | 0.00 | 0.00 | 0.00 | 91 | 1006.8 |
| 20260506092510 | 76 | 132 | 0.0 | 2.0 | 0.00 | 0.00 | 0.00 | 91 | 1006.4 |
| 20260506092230 | 76 | 126 | 0.0 | 1.0 | 0.00 | 0.00 | 0.00 | 91 | 1006.4 |
| 20260506091456 | 76 | 125 | 0.0 | 0.0 | 0.00 | 0.00 | 0.00 | 91 | 1006.4 |
| 20260506091209 | 76 | 124 | 0.0 | 1.0 | 0.00 | 0.00 | 0.00 | 91 | 1006.8 |
| 20260506090448 | 76 | 123 | 0.0 | 1.0 | 0.00 | 0.00 | 0.00 | 90 | 1006.8 |
| 20260506090206 | 76 | 138 | 0.0 | 2.0 | 0.00 | 0.00 | 0.00 | 90 | 1006.8 |
| 20260506085434 | 77 | 133 | 0.0 | 2.0 | 0.00 | 0.00 | 0.00 | 90 | 1006.8 |
| 20260506084927 | 77 | 131 | 0.0 | 1.0 | 0.00 | 0.00 | 0.00 | 90 | 1006.8 |
| 20260506084424 | 77 | 141 | 0.0 | 2.0 | 0.00 | 0.00 | 0.00 | 90 | 1006.8 |
| 20260506084145 | 77 | 100 | 0.0 | 2.0 | 0.00 | 0.00 | 0.00 | 90 | 1006.8 |
| 20260506083629 | 77 | 92 | 0.0 | 1.0 | 0.00 | 0.00 | 0.00 | 90 | 1006.8 |
| 20260506082906 | 77 | 142 | 0.0 | 3.0 | 0.00 | 0.00 | 0.00 | 90 | 1006.8 |
| 20260506082404 | 77 | 149 | 0.0 | 3.0 | 0.00 | 0.00 | 0.00 | 90 | 1007.1 |
| 20260506081857 | 77 | 132 | 0.0 | 0.0 | 0.00 | 0.00 | 0.00 | 90 | 1007.1 |
| 20260506081351 | 77 | 158 | 0.0 | 2.0 | 0.00 | 0.00 | 0.00 | 90 | 1007.1 |
| 20260506080845 | 77 | 153 | 0.0 | 2.0 | 0.00 | 0.00 | 0.00 | 90 | 1007.1 |
| 20260506080337 | 77 | 124 | 0.0 | 3.0 | 0.00 | 0.00 | 0.00 | 89 | 1007.1 |
| 20260506073529 | 77 | 150 | 0.0 | 1.0 | 0.00 | 0.00 | 0.00 | 89 | 1007.5 |
| 20260506072757 | 77 | 143 | 0.0 | 2.0 | 0.00 | 0.00 | 0.00 | 89 | 1007.5 |
| 20260506072524 | 77 | 114 | 0.0 | 2.0 | 0.00 | 0.00 | 0.00 | 89 | 1007.5 |
| 20260506071751 | 78 | 138 | 0.0 | 1.0 | 0.00 | 0.00 | 0.00 | 89 | 1007.5 |
| 20260506071245 | 78 | 133 | 0.0 | 1.0 | 0.00 | 0.00 | 0.00 | 89 | 1007.5 |
| 20260506070740 | 78 | 133 | 0.0 | 1.0 | 0.00 | 0.00 | 0.00 | 89 | 1007.5 |
| 20260506070238 | 78 | 111 | 0.0 | 2.0 | 0.00 | 0.00 | 0.00 | 89 | 1007.5 |
| 20260506062158 | 78 | 140 | 0.0 | 1.0 | 0.00 | 0.00 | 0.00 | 89 | 1007.8 |
| 20260506061652 | 78 | 139 | 0.0 | 1.0 | 0.00 | 0.00 | 0.00 | 89 | 1007.8 |
| 20260506061142 | 78 | 135 | 0.0 | 1.0 | 0.00 | 0.00 | 0.00 | 89 | 1007.8 |
| 20260506060634 | 78 | 158 | 0.0 | 1.0 | 0.00 | 0.00 | 0.00 | 89 | 1007.8 |
| 20260506060133 | 78 | 147 | 0.0 | 4.0 | 0.00 | 0.00 | 0.00 | 88 | 1007.8 |
| 20260506051035 | 78 | 157 | 0.0 | 1.0 | 0.00 | 0.00 | 0.00 | 87 | 1007.5 |
| 20260506050528 | 78 | 148 | 0.0 | 6.0 | 0.00 | 0.00 | 0.00 | 87 | 1007.8 |
| 20260506045010 | 78 | 172 | 1.0 | 1.0 | 0.00 | 0.00 | 0.00 | 87 | 1007.8 |
| 20260506044001 | 78 | 163 | 0.0 | 7.0 | 0.00 | 0.00 | 0.00 | 87 | 1007.8 |
| 20260506043452 | 78 | 129 | 0.0 | 7.0 | 0.00 | 0.00 | 0.00 | 88 | 1007.8 |
| 20260506042945 | 78 | 143 | 0.0 | 1.0 | 0.00 | 0.00 | 0.00 | 87 | 1007.8 |
| 20260506042439 | 78 | 171 | 0.0 | 3.0 | 0.00 | 0.00 | 0.00 | 87 | 1007.5 |
| 20260506041935 | 78 | 114 | 0.0 | 3.0 | 0.00 | 0.00 | 0.00 | 87 | 1007.5 |
| 20260506041652 | 78 | 88 | 0.0 | 4.0 | 0.00 | 0.00 | 0.00 | 87 | 1007.5 |
| 20260506040925 | 78 | 142 | 0.0 | 4.0 | 0.00 | 0.00 | 0.00 | 87 | 1008.1 |
| 20260506040417 | 78 | 166 | 0.0 | 3.0 | 0.00 | 0.00 | 0.00 | 86 | 1007.8 |
| 20260506035911 | 79 | 106 | 0.0 | 3.0 | 0.00 | 0.00 | 0.00 | 86 | 1007.8 |
| 20260506035615 | 79 | 143 | 0.0 | 6.0 | 0.00 | 0.00 | 0.00 | 86 | 1007.5 |
| 20260506034850 | 79 | 124 | 0.0 | 6.0 | 0.00 | 0.00 | 0.00 | 85 | 1007.5 |
| 20260506034343 | 79 | 117 | 0.0 | 4.0 | 0.00 | 0.00 | 0.00 | 85 | 1007.5 |
| 20260506033837 | 79 | 163 | 2.0 | 4.0 | 0.00 | 0.00 | 0.00 | 84 | 1007.5 |
| 20260506033326 | 79 | 147 | 0.0 | 3.0 | 0.00 | 0.00 | 0.00 | 84 | 1007.5 |
| 20260506032818 | 79 | 129 | 0.0 | 3.0 | 0.00 | 0.00 | 0.00 | 85 | 1007.1 |
| 20260506032311 | 79 | 104 | 0.0 | 3.0 | 0.00 | 0.00 | 0.00 | 84 | 1007.1 |
| 20260506031806 | 79 | 169 | 0.0 | 3.0 | 0.00 | 0.00 | 0.00 | 84 | 1007.1 |
| 20260506031255 | 79 | 132 | 0.0 | 2.0 | 0.00 | 0.00 | 0.00 | 84 | 1007.1 |
| 20260506030749 | 79 | 111 | 0.0 | 3.0 | 0.00 | 0.00 | 0.00 | 84 | 1007.1 |
| 20260506030500 | 79 | 296 | 0.0 | 3.0 | 0.00 | 0.00 | 0.00 | 84 | 1007.1 |
| 20260506025737 | 79 | 121 | 0.0 | 3.0 | 0.00 | 0.00 | 0.00 | 84 | 1007.1 |
| 20260506025237 | 79 | 131 | 0.0 | 3.0 | 0.00 | 0.00 | 0.00 | 84 | 1006.8 |
| 20260506024729 | 79 | 161 | 0.0 | 3.0 | 0.00 | 0.00 | 0.00 | 83 | 1006.8 |
| 20260506024221 | 80 | 118 | 0.0 | 3.0 | 0.00 | 0.00 | 0.00 | 83 | 1006.8 |
| 20260506023935 | 79 | 146 | 0.0 | 3.0 | 0.00 | 0.00 | 0.00 | 83 | 1006.8 |
| 20260506023213 | 80 | 175 | 0.0 | 3.0 | 0.00 | 0.00 | 0.00 | 83 | 1006.8 |
| 20260506022706 | 80 | 138 | 0.0 | 3.0 | 0.00 | 0.00 | 0.00 | 83 | 1006.4 |
| 20260506022201 | 80 | 152 | 2.0 | 3.0 | 0.00 | 0.00 | 0.00 | 83 | 1006.4 |
| 20260506021919 | 80 | 185 | 0.0 | 3.0 | 0.00 | 0.00 | 0.00 | 83 | 1006.4 |
| 20260506021149 | 80 | 149 | 0.0 | 3.0 | 0.00 | 0.00 | 0.00 | 83 | 1006.4 |
| 20260506020645 | 80 | 163 | 2.0 | 3.0 | 0.00 | 0.00 | 0.00 | 82 | 1006.4 |
| 20260506020137 | 80 | 176 | 0.0 | 4.0 | 0.00 | 0.00 | 0.00 | 82 | 1006.4 |
| 20260506015630 | 80 | 151 | 0.0 | 4.0 | 0.00 | 0.00 | 0.00 | 82 | 1006.4 |
| 20260506015128 | 80 | 121 | 2.0 | 3.0 | 0.00 | 0.00 | 0.00 | 82 | 1006.1 |
| 20260506014618 | 80 | 136 | 0.0 | 2.0 | 0.00 | 0.00 | 0.00 | 82 | 1006.1 |
| 20260506014111 | 80 | 126 | 0.0 | 2.0 | 0.00 | 0.00 | 0.00 | 82 | 1006.1 |
| 20260506013602 | 80 | 139 | 0.0 | 6.0 | 0.00 | 0.00 | 0.00 | 81 | 1006.1 |
| 20260506013101 | 80 | 155 | 0.0 | 6.0 | 0.00 | 0.00 | 0.00 | 81 | 1005.8 |
| 20260506012819 | 80 | 141 | 0.0 | 3.0 | 0.00 | 0.00 | 0.00 | 81 | 1005.8 |
| 20260506012046 | 80 | 174 | 0.0 | 3.0 | 0.00 | 0.00 | 0.00 | 80 | 1005.8 |
| 20260506011536 | 81 | 107 | 0.0 | 3.0 | 0.00 | 0.00 | 0.00 | 80 | 1005.8 |
| 20260506011036 | 81 | 128 | 0.0 | 3.0 | 0.00 | 0.00 | 0.00 | 80 | 1005.8 |
| 20260506010529 | 81 | 170 | 1.0 | 9.0 | 0.00 | 0.00 | 0.00 | 80 | 1005.4 |
| 20260506010021 | 81 | 202 | 2.0 | 9.0 | 0.00 | 0.00 | 0.00 | 80 | 1005.8 |
| 20260506005514 | 81 | 119 | 4.0 | 8.0 | 0.00 | 0.00 | 0.00 | 79 | 1005.4 |
| 20260506005014 | 81 | 120 | 0.0 | 8.0 | 0.00 | 0.00 | 0.00 | 80 | 1005.4 |
| 20260506004506 | 81 | 138 | 0.0 | 6.0 | 0.00 | 0.00 | 0.00 | 79 | 1005.4 |
| 20260506004000 | 82 | 129 | 2.0 | 6.0 | 0.00 | 0.00 | 0.00 | 79 | 1005.4 |
| 20260506003452 | 82 | 170 | 0.0 | 4.0 | 0.00 | 0.00 | 0.00 | 78 | 1005.4 |
| 20260506002949 | 82 | 154 | 0.0 | 4.0 | 0.00 | 0.00 | 0.00 | 78 | 1005.4 |
| 20260506002715 | 81 | 117 | 0.0 | 6.0 | 0.00 | 0.00 | 0.00 | 79 | 1005.1 |
| 20260506001938 | 81 | 151 | 0.0 | 6.0 | 0.00 | 0.00 | 0.00 | 79 | 1005.1 |
| 20260506001432 | 82 | 171 | 1.0 | 4.0 | 0.00 | 0.00 | 0.00 | 78 | 1005.4 |
| 20260506000931 | 82 | 198 | 3.0 | 4.0 | 0.00 | 0.00 | 0.00 | 78 | 1005.4 |
| 20260506000423 | 82 | 177 | 0.0 | 7.0 | 0.00 | 0.00 | 0.00 | 78 | 1005.4 |
| 20260505235917 | 82 | 138 | 1.0 | 4.0 | 0.00 | 0.00 | 0.00 | 78 | 1005.4 |
| 20260505235413 | 82 | 170 | 1.0 | 8.0 | 0.00 | 0.00 | 0.00 | 78 | 1005.1 |
| 20260505235139 | 82 | 123 | 2.0 | 8.0 | 0.00 | 0.00 | 0.00 | 78 | 1005.1 |
| 20260505234401 | 82 | 181 | 1.0 | 7.0 | 0.00 | 0.00 | 0.00 | 77 | 1005.1 |
| 20260505233853 | 82 | 215 | 2.0 | 6.0 | 0.00 | 0.00 | 0.00 | 78 | 1005.1 |
| 20260505233344 | 82 | 168 | 0.0 | 3.0 | 0.00 | 0.00 | 0.00 | 78 | 1005.1 |
| 20260505233107 | 82 | 159 | 0.0 | 4.0 | 0.00 | 0.00 | 0.00 | 78 | 1005.4 |
| 20260505232335 | 83 | 133 | 0.0 | 7.0 | 0.00 | 0.00 | 0.00 | 77 | 1005.1 |
| 20260505231826 | 83 | 123 | 2.0 | 7.0 | 0.00 | 0.00 | 0.00 | 77 | 1005.1 |
| 20260505231318 | 83 | 112 | 2.0 | 6.0 | 0.00 | 0.00 | 0.00 | 77 | 1005.4 |
| 20260505230818 | 83 | 268 | 3.0 | 6.0 | 0.00 | 0.00 | 0.00 | 77 | 1005.1 |
| 20260505230532 | 83 | 148 | 1.0 | 6.0 | 0.00 | 0.00 | 0.00 | 77 | 1005.4 |
| 20260505225255 | 83 | 153 | 0.0 | 7.0 | 0.00 | 0.00 | 0.00 | 76 | 1005.4 |
| 20260505224756 | 83 | 153 | 1.0 | 7.0 | 0.00 | 0.00 | 0.00 | 76 | 1005.1 |
| 20260505224246 | 83 | 164 | 3.0 | 9.0 | 0.00 | 0.00 | 0.00 | 76 | 1005.4 |
| 20260505223738 | 84 | 194 | 5.0 | 9.0 | 0.00 | 0.00 | 0.00 | 75 | 1005.4 |
| 20260505223231 | 84 | 172 | 0.0 | 9.0 | 0.00 | 0.00 | 0.00 | 75 | 1005.1 |
| 20260505222730 | 84 | 213 | 2.0 | 9.0 | 0.00 | 0.00 | 0.00 | 75 | 1005.4 |
| 20260505222222 | 84 | 189 | 4.0 | 9.0 | 0.00 | 0.00 | 0.00 | 75 | 1005.4 |
| 20260505221714 | 84 | 167 | 1.0 | 9.0 | 0.00 | 0.00 | 0.00 | 75 | 1005.4 |
| 20260505221437 | 85 | 101 | 0.0 | 7.0 | 0.00 | 0.00 | 0.00 | 74 | 1005.4 |
| 20260505220705 | 85 | 159 | 0.0 | 7.0 | 0.00 | 0.00 | 0.00 | 74 | 1005.4 |
| 20260505220158 | 85 | 65 | 0.0 | 7.0 | 0.00 | 0.00 | 0.00 | 73 | 1005.4 |
| 20260505215649 | 85 | 155 | 3.0 | 7.0 | 0.00 | 0.00 | 0.00 | 73 | 1005.4 |
| 20260505215142 | 85 | 162 | 0.0 | 8.0 | 0.00 | 0.00 | 0.00 | 73 | 1005.8 |
| 20260505214642 | 85 | 149 | 1.0 | 8.0 | 0.00 | 0.00 | 0.00 | 73 | 1005.4 |
| 20260505214136 | 85 | 166 | 4.0 | 8.0 | 0.00 | 0.00 | 0.00 | 73 | 1005.8 |
| 20260505213630 | 86 | 117 | 3.0 | 11.0 | 0.00 | 0.00 | 0.00 | 73 | 1005.8 |
| 20260505213123 | 86 | 175 | 2.0 | 11.0 | 0.00 | 0.00 | 0.00 | 72 | 1005.8 |
| 20260505212623 | 85 | 161 | 1.0 | 9.0 | 0.00 | 0.00 | 0.00 | 73 | 1005.8 |
| 20260505212115 | 85 | 341 | 3.0 | 9.0 | 0.00 | 0.00 | 0.00 | 73 | 1005.8 |
| 20260505211608 | 86 | 115 | 0.0 | 7.0 | 0.00 | 0.00 | 0.00 | 72 | 1005.8 |
| 20260505211101 | 86 | 210 | 4.0 | 7.0 | 0.00 | 0.00 | 0.00 | 72 | 1005.8 |
| 20260505210601 | 86 | 115 | 4.0 | 9.0 | 0.00 | 0.00 | 0.00 | 72 | 1006.1 |
| 20260505210055 | 86 | 151 | 4.0 | 10.0 | 0.00 | 0.00 | 0.00 | 72 | 1006.1 |
| 20260505205548 | 85 | 200 | 4.0 | 9.0 | 0.00 | 0.00 | 0.00 | 73 | 1006.1 |
| 20260505205041 | 85 | 164 | 0.0 | 9.0 | 0.00 | 0.00 | 0.00 | 73 | 1006.1 |
| 20260505204539 | 86 | 181 | 1.0 | 9.0 | 0.00 | 0.00 | 0.00 | 73 | 1006.1 |
| 20260505204033 | 86 | 271 | 5.0 | 9.0 | 0.00 | 0.00 | 0.00 | 73 | 1006.1 |
| 20260505203526 | 85 | 99 | 1.0 | 7.0 | 0.00 | 0.00 | 0.00 | 73 | 1006.4 |
| 20260505203021 | 85 | 175 | 0.0 | 7.0 | 0.00 | 0.00 | 0.00 | 73 | 1006.4 |
| 20260505202510 | 86 | 143 | 0.0 | 9.0 | 0.00 | 0.00 | 0.00 | 73 | 1006.4 |
| 20260505202003 | 85 | 122 | 3.0 | 9.0 | 0.00 | 0.00 | 0.00 | 74 | 1006.8 |
| 20260505201455 | 85 | 183 | 0.0 | 6.0 | 0.00 | 0.00 | 0.00 | 73 | 1006.8 |
| 20260505200948 | 85 | 182 | 1.0 | 6.0 | 0.00 | 0.00 | 0.00 | 73 | 1006.8 |
| 20260505200445 | 86 | 177 | 4.0 | 8.0 | 0.00 | 0.00 | 0.00 | 72 | 1006.8 |
| 20260505195939 | 85 | 146 | 1.0 | 13.0 | 0.00 | 0.00 | 0.00 | 73 | 1006.8 |
| 20260505195434 | 85 | 141 | 3.0 | 13.0 | 0.00 | 0.00 | 0.00 | 73 | 1006.8 |
| 20260505194926 | 85 | 133 | 1.0 | 7.0 | 0.00 | 0.00 | 0.00 | 74 | 1007.1 |
| 20260505194417 | 85 | 173 | 1.0 | 7.0 | 0.00 | 0.00 | 0.00 | 74 | 1007.1 |
| 20260505193911 | 86 | 210 | 4.0 | 6.0 | 0.00 | 0.00 | 0.00 | 72 | 1007.1 |
| 20260505193402 | 86 | 129 | 2.0 | 6.0 | 0.00 | 0.00 | 0.00 | 72 | 1007.1 |
| 20260505192855 | 85 | 198 | 0.0 | 7.0 | 0.00 | 0.00 | 0.00 | 73 | 1007.1 |
| 20260505192354 | 85 | 144 | 4.0 | 7.0 | 0.00 | 0.00 | 0.00 | 74 | 1007.1 |
| 20260505191846 | 84 | 219 | 3.0 | 7.0 | 0.00 | 0.00 | 0.00 | 75 | 1007.5 |
| 20260505191607 | 84 | 157 | 3.0 | 7.0 | 0.00 | 0.00 | 0.00 | 75 | 1007.5 |
| 20260505190835 | 83 | 235 | 2.0 | 7.0 | 0.00 | 0.00 | 0.00 | 76 | 1007.5 |
| 20260505190331 | 82 | 109 | 0.0 | 7.0 | 0.00 | 0.00 | 0.00 | 78 | 1007.5 |
| 20260505185823 | 83 | 172 | 2.0 | 7.0 | 0.00 | 0.00 | 0.00 | 77 | 1007.1 |
| 20260505185318 | 84 | 203 | 4.0 | 7.0 | 0.00 | 0.00 | 0.00 | 75 | 1007.5 |
| 20260505184810 | 84 | 160 | 0.0 | 7.0 | 0.00 | 0.00 | 0.00 | 74 | 1007.5 |
| 20260505184529 | 84 | 179 | 0.0 | 4.0 | 0.00 | 0.00 | 0.00 | 75 | 1007.5 |
| 20260505183803 | 83 | 94 | 1.0 | 7.0 | 0.00 | 0.00 | 0.00 | 77 | 1007.5 |
| 20260505183256 | 83 | 170 | 3.0 | 7.0 | 0.00 | 0.00 | 0.00 | 76 | 1007.5 |
| 20260505182750 | 83 | 130 | 1.0 | 9.0 | 0.00 | 0.00 | 0.00 | 76 | 1007.5 |
| 20260505182242 | 82 | 159 | 0.0 | 9.0 | 0.00 | 0.00 | 0.00 | 77 | 1007.5 |